Location: LDNL
(36.4545°S, 141.6685°E)
Time: 10:56:18
(UTC+10:00)

Explorer 7 - Pass Details

Date: 15 August 2022
Orbit: 482 x 668 km, 50.3° (Epoch: 26 September)

Event Time Altitude Azimuth Distance (km) Brightness Sun altitude
Rises 19:25:07 0° 259° (W) 3,018 12.1 -17.7°
Reaches altitude 10° 19:28:09 10° 241° (WSW) 2,094 10.6 -18.3°
Maximum altitude 19:31:34 19° 196° (SSW) 1,564 9.2 -19.0°
Enters shadow 19:34:02 13° 160° (SSE) 1,832 9.2 -19.5°
Drops below altitude 10° 19:34:56 10° 150° (SSE) 2,043 - -19.6°
Sets 19:37:50 0° 132° (SE) 2,919 - -20.2°
